| time (UTC) | temp F | wind direction | speed MPH | gust MPH | rain 1hr in | rain 24hr in | rain mn in | humidity % | barometer mb |
| 20260901224905 | 59 | 266 | 7.0 | 17.0 | 0.00 | 0.00 | 0.00 | 76 | 1015.7 |
| 20260901224406 | 58 | 232 | 7.0 | 26.0 | 0.00 | 0.00 | 0.00 | 76 | 1015.8 |
| 20260901223906 | 58 | 221 | 9.0 | 17.0 | 0.00 | 0.00 | 0.00 | 75 | 1015.7 |
| 20260901223405 | 58 | 246 | 6.0 | 21.0 | 0.00 | 0.00 | 0.00 | 76 | 1015.6 |
| 20260901222405 | 58 | 259 | 7.0 | 21.0 | 0.00 | 0.00 | 0.00 | 75 | 1015.6 |
| 20260901221905 | 58 | 308 | 9.0 | 20.0 | 0.00 | 0.00 | 0.00 | 75 | 1015.6 |
| 20260901221405 | 58 | 300 | 6.0 | 17.0 | 0.00 | 0.00 | 0.00 | 76 | 1015.6 |
| 20260901220906 | 57 | 348 | 5.0 | 17.0 | 0.00 | 0.00 | 0.00 | 75 | 1015.6 |
| 20260901220405 | 57 | 293 | 8.0 | 21.0 | 0.00 | 0.00 | 0.00 | 75 | 1015.5 |
| 20260901215906 | 57 | 274 | 9.0 | 20.0 | 0.00 | 0.00 | 0.00 | 75 | 1015.5 |
| 20260901215406 | 57 | 329 | 8.0 | 21.0 | 0.00 | 0.00 | 0.00 | 75 | 1015.5 |
| 20260901214405 | 57 | 335 | 8.0 | 21.0 | 0.00 | 0.00 | 0.00 | 76 | 1015.6 |
| 20260901213405 | 57 | 334 | 8.0 | 18.0 | 0.00 | 0.00 | 0.00 | 75 | 1015.6 |
| 20260901212905 | 57 | 337 | 8.0 | 23.0 | 0.00 | 0.00 | 0.00 | 75 | 1015.4 |
| 20260901212405 | 56 | 294 | 7.0 | 25.0 | 0.00 | 0.00 | 0.00 | 75 | 1015.4 |
| 20260901211905 | 56 | 310 | 6.0 | 20.0 | 0.00 | 0.00 | 0.00 | 75 | 1015.5 |
| 20260901211405 | 56 | 294 | 7.0 | 16.0 | 0.00 | 0.00 | 0.00 | 75 | 1015.5 |
| 20260901210405 | 56 | 270 | 5.0 | 18.0 | 0.00 | 0.00 | 0.00 | 75 | 1015.6 |
| 20260901205905 | 55 | 306 | 5.0 | 12.0 | 0.00 | 0.00 | 0.00 | 75 | 1015.7 |
| 20260901205407 | 55 | 203 | 5.0 | 21.0 | 0.00 | 0.00 | 0.00 | 75 | 1015.8 |
| 20260901204906 | 55 | 239 | 6.0 | 18.0 | 0.00 | 0.00 | 0.00 | 75 | 1015.9 |
| 20260901204405 | 54 | 216 | 6.0 | 13.0 | 0.00 | 0.00 | 0.00 | 76 | 1015.8 |
| 20260901203904 | 54 | 205 | 8.0 | 15.0 | 0.00 | 0.00 | 0.00 | 76 | 1015.8 |
| 20260901202906 | 53 | 210 | 7.0 | 25.0 | 0.00 | 0.00 | 0.00 | 78 | 1015.8 |
| 20260901202405 | 52 | 215 | 7.0 | 18.0 | 0.00 | 0.00 | 0.00 | 79 | 1015.9 |
| 20260901201905 | 52 | 223 | 6.0 | 12.0 | 0.00 | 0.00 | 0.00 | 79 | 1016.0 |
| 20260901201406 | 52 | 214 | 6.0 | 18.0 | 0.00 | 0.00 | 0.00 | 80 | 1016.0 |
| 20260901200905 | 51 | 293 | 6.0 | 12.0 | 0.00 | 0.00 | 0.00 | 80 | 1016.0 |
| 20260901200405 | 51 | 320 | 5.0 | 13.0 | 0.00 | 0.00 | 0.00 | 81 | 1016.1 |
| 20260901195904 | 51 | 225 | 4.0 | 10.0 | 0.00 | 0.00 | 0.00 | 81 | 1016.0 |
| 20260901194905 | 51 | 224 | 4.0 | 13.0 | 0.00 | 0.00 | 0.00 | 81 | 1015.9 |
| 20260901194405 | 51 | 233 | 6.0 | 15.0 | 0.00 | 0.00 | 0.00 | 81 | 1015.8 |
| 20260901193905 | 51 | 223 | 6.0 | 13.0 | 0.00 | 0.00 | 0.00 | 81 | 1015.8 |
| 20260901193405 | 51 | 315 | 7.0 | 23.0 | 0.00 | 0.00 | 0.00 | 82 | 1015.7 |
| 20260901192906 | 51 | 218 | 4.0 | 13.0 | 0.00 | 0.00 | 0.00 | 82 | 1015.6 |
| 20260901191905 | 51 | 200 | 5.0 | 20.0 | 0.00 | 0.00 | 0.00 | 83 | 1015.6 |
| 20260901191405 | 51 | 216 | 9.0 | 20.0 | 0.00 | 0.00 | 0.00 | 83 | 1015.4 |
| 20260901190905 | 51 | 350 | 3.0 | 12.0 | 0.00 | 0.00 | 0.00 | 83 | 1015.5 |
| 20260901190406 | 51 | 269 | 4.0 | 12.0 | 0.00 | 0.00 | 0.00 | 83 | 1015.5 |
| 20260901185905 | 51 | 226 | 6.0 | 13.0 | 0.00 | 0.00 | 0.00 | 83 | 1015.6 |
| 20260901185405 | 51 | 290 | 3.0 | 12.0 | 0.00 | 0.00 | 0.00 | 84 | 1015.5 |
| 20260901184905 | 51 | 235 | 5.0 | 14.0 | 0.00 | 0.00 | 0.00 | 84 | 1015.4 |
| 20260901184405 | 51 | 261 | 5.0 | 13.0 | 0.00 | 0.00 | 0.00 | 84 | 1015.5 |
| 20260901183905 | 52 | 282 | 6.0 | 16.0 | 0.00 | 0.00 | 0.00 | 84 | 1015.5 |
| 20260901183405 | 52 | 214 | 7.0 | 16.0 | 0.00 | 0.00 | 0.00 | 83 | 1015.7 |
| 20260901182905 | 51 | 256 | 6.0 | 14.0 | 0.00 | 0.00 | 0.00 | 83 | 1015.4 |
| 20260901182404 | 51 | 280 | 3.0 | 12.0 | 0.00 | 0.00 | 0.00 | 83 | 1015.4 |
| 20260901181905 | 51 | 276 | 3.0 | 13.0 | 0.00 | 0.00 | 0.00 | 83 | 1015.3 |
| 20260901180905 | 51 | 225 | 4.0 | 15.0 | 0.00 | 0.00 | 0.00 | 83 | 1015.4 |
| 20260901180405 | 51 | 297 | 5.0 | 13.0 | 0.00 | 0.00 | 0.00 | 83 | 1015.3 |
| 20260901175905 | 51 | 278 | 3.0 | 9.0 | 0.00 | 0.00 | 0.00 | 82 | 1015.3 |
| 20260901175405 | 50 | 270 | 5.0 | 9.0 | 0.00 | 0.00 | 0.00 | 82 | 1015.3 |
| 20260901174405 | 51 | 293 | 2.0 | 10.0 | 0.00 | 0.00 | 0.00 | 82 | 1015.2 |
| 20260901173905 | 51 | 239 | 4.0 | 10.0 | 0.00 | 0.00 | 0.00 | 81 | 1015.2 |
| 20260901173405 | 51 | 230 | 6.0 | 12.0 | 0.00 | 0.00 | 0.00 | 81 | 1015.2 |
| 20260901172905 | 51 | 218 | 6.0 | 17.0 | 0.00 | 0.00 | 0.00 | 81 | 1015.3 |
| 20260901172405 | 51 | 198 | 6.0 | 15.0 | 0.00 | 0.00 | 0.00 | 82 | 1015.3 |
| 20260901171905 | 51 | 219 | 6.0 | 14.0 | 0.00 | 0.00 | 0.00 | 82 | 1015.2 |
| 20260901171405 | 51 | 305 | 7.0 | 16.0 | 0.00 | 0.00 | 0.00 | 82 | 1015.1 |
| 20260901170904 | 51 | 265 | 6.0 | 17.0 | 0.00 | 0.00 | 0.00 | 83 | 1014.9 |
| 20260901170404 | 50 | 244 | 5.0 | 17.0 | 0.00 | 0.00 | 0.00 | 84 | 1014.9 |
| 20260901165905 | 51 | 202 | 6.0 | 14.0 | 0.00 | 0.00 | 0.00 | 84 | 1014.9 |
| 20260901164905 | 51 | 228 | 4.0 | 10.0 | 0.00 | 0.00 | 0.00 | 84 | 1014.8 |
| 20260901163904 | 51 | 210 | 6.0 | 15.0 | 0.00 | 0.00 | 0.00 | 83 | 1014.7 |
| 20260901162905 | 51 | 236 | 6.0 | 16.0 | 0.00 | 0.00 | 0.00 | 83 | 1014.7 |
| 20260901162405 | 51 | 218 | 7.0 | 15.0 | 0.00 | 0.00 | 0.00 | 83 | 1014.7 |
| 20260901161905 | 51 | 205 | 7.0 | 20.0 | 0.00 | 0.00 | 0.00 | 83 | 1014.7 |
| 20260901160905 | 52 | 203 | 7.0 | 22.0 | 0.00 | 0.00 | 0.00 | 83 | 1014.7 |
| 20260901160405 | 52 | 185 | 7.0 | 20.0 | 0.00 | 0.00 | 0.00 | 83 | 1014.8 |
| 20260901155905 | 52 | 208 | 7.0 | 15.0 | 0.00 | 0.00 | 0.00 | 83 | 1014.7 |
| 20260901155405 | 52 | 249 | 8.0 | 18.0 | 0.00 | 0.00 | 0.00 | 83 | 1014.6 |
| 20260901154905 | 52 | 190 | 8.0 | 15.0 | 0.00 | 0.00 | 0.00 | 83 | 1014.7 |
| 20260901154405 | 51 | 216 | 9.0 | 22.0 | 0.00 | 0.00 | 0.00 | 83 | 1014.7 |
| 20260901153904 | 51 | 204 | 7.0 | 17.0 | 0.00 | 0.00 | 0.00 | 83 | 1014.6 |
| 20260901153405 | 52 | 211 | 8.0 | 17.0 | 0.00 | 0.00 | 0.00 | 83 | 1014.6 |
| 20260901152905 | 51 | 217 | 9.0 | 21.0 | 0.00 | 0.00 | 0.00 | 83 | 1014.6 |
| 20260901152404 | 51 | 254 | 7.0 | 20.0 | 0.00 | 0.00 | 0.00 | 83 | 1014.6 |
| 20260901151905 | 51 | 239 | 7.0 | 20.0 | 0.00 | 0.00 | 0.00 | 83 | 1014.7 |
| 20260901151405 | 51 | 283 | 7.0 | 17.0 | 0.00 | 0.00 | 0.00 | 84 | 1014.8 |
| 20260901150905 | 51 | 228 | 6.0 | 18.0 | 0.00 | 0.00 | 0.00 | 83 | 1014.6 |
| 20260901150405 | 51 | 196 | 5.0 | 16.0 | 0.00 | 0.00 | 0.00 | 83 | 1014.8 |
| 20260901145904 | 51 | 230 | 7.0 | 15.0 | 0.00 | 0.00 | 0.00 | 82 | 1014.8 |
| 20260901144905 | 51 | 209 | 7.0 | 17.0 | 0.00 | 0.00 | 0.00 | 82 | 1014.9 |
| 20260901143905 | 51 | 190 | 5.0 | 12.0 | 0.00 | 0.00 | 0.00 | 82 | 1015.0 |
| 20260901142405 | 51 | 224 | 6.0 | 12.0 | 0.00 | 0.00 | 0.00 | 81 | 1015.1 |
| 20260901141904 | 51 | 204 | 7.0 | 13.0 | 0.00 | 0.00 | 0.00 | 81 | 1015.0 |
| 20260901141405 | 51 | 225 | 7.0 | 15.0 | 0.00 | 0.00 | 0.00 | 81 | 1015.1 |
| 20260901140905 | 51 | 212 | 5.0 | 17.0 | 0.00 | 0.00 | 0.00 | 81 | 1015.1 |
| 20260901140405 | 51 | 225 | 6.0 | 14.0 | 0.00 | 0.00 | 0.00 | 81 | 1015.2 |
| 20260901135904 | 51 | 212 | 7.0 | 15.0 | 0.00 | 0.00 | 0.00 | 81 | 1015.2 |
| 20260901135404 | 51 | 207 | 7.0 | 15.0 | 0.00 | 0.00 | 0.00 | 81 | 1015.2 |
| 20260901134905 | 51 | 208 | 7.0 | 15.0 | 0.00 | 0.00 | 0.00 | 81 | 1015.2 |
| 20260901133904 | 51 | 216 | 7.0 | 16.0 | 0.00 | 0.00 | 0.00 | 82 | 1015.3 |
| 20260901133405 | 51 | 197 | 8.0 | 18.0 | 0.00 | 0.00 | 0.00 | 82 | 1015.1 |
| 20260901132905 | 51 | 220 | 7.0 | 20.0 | 0.00 | 0.00 | 0.00 | 82 | 1015.0 |
| 20260901132404 | 50 | 232 | 9.0 | 22.0 | 0.00 | 0.00 | 0.00 | 82 | 1015.0 |
| 20260901131905 | 50 | 213 | 9.0 | 21.0 | 0.00 | 0.00 | 0.00 | 82 | 1015.0 |
| 20260901130904 | 50 | 217 | 6.0 | 12.0 | 0.00 | 0.00 | 0.00 | 83 | 1015.0 |
| 20260901130405 | 50 | 241 | 5.0 | 13.0 | 0.00 | 0.00 | 0.00 | 83 | 1015.1 |
| 20260901125905 | 50 | 213 | 7.0 | 17.0 | 0.00 | 0.00 | 0.00 | 83 | 1015.2 |
| 20260901125405 | 50 | 198 | 7.0 | 14.0 | 0.00 | 0.00 | 0.00 | 84 | 1015.1 |
| 20260901124904 | 50 | 219 | 9.0 | 20.0 | 0.00 | 0.00 | 0.00 | 84 | 1015.1 |
| 20260901124405 | 50 | 227 | 6.0 | 14.0 | 0.00 | 0.00 | 0.00 | 84 | 1015.3 |
| 20260901123904 | 50 | 227 | 7.0 | 14.0 | 0.00 | 0.00 | 0.00 | 85 | 1015.1 |
| 20260901123405 | 50 | 202 | 6.0 | 16.0 | 0.00 | 0.00 | 0.00 | 85 | 1015.0 |
| 20260901122905 | 50 | 217 | 9.0 | 16.0 | 0.00 | 0.00 | 0.00 | 85 | 1015.1 |
| 20260901122405 | 50 | 218 | 6.0 | 15.0 | 0.00 | 0.00 | 0.00 | 85 | 1015.2 |
| 20260901121905 | 50 | 197 | 7.0 | 17.0 | 0.00 | 0.00 | 0.00 | 85 | 1015.2 |
| 20260901121405 | 50 | 196 | 7.0 | 17.0 | 0.00 | 0.00 | 0.00 | 85 | 1015.3 |
| 20260901120904 | 50 | 229 | 9.0 | 20.0 | 0.00 | 0.00 | 0.00 | 85 | 1015.3 |
| 20260901120404 | 50 | 221 | 9.0 | 20.0 | 0.00 | 0.00 | 0.00 | 86 | 1015.1 |
| 20260901115905 | 50 | 228 | 7.0 | 16.0 | 0.00 | 0.01 | 0.00 | 85 | 1015.2 |
| 20260901115405 | 50 | 220 | 7.0 | 18.0 | 0.00 | 0.01 | 0.00 | 85 | 1015.1 |
| 20260901114904 | 50 | 250 | 7.0 | 17.0 | 0.00 | 0.01 | 0.00 | 85 | 1015.2 |
| 20260901113904 | 50 | 238 | 6.0 | 17.0 | 0.00 | 0.01 | 0.00 | 84 | 1015.3 |
| 20260901113405 | 50 | 201 | 7.0 | 16.0 | 0.00 | 0.01 | 0.00 | 84 | 1015.3 |
| 20260901112904 | 50 | 243 | 5.0 | 14.0 | 0.00 | 0.01 | 0.00 | 83 | 1015.4 |
| 20260901112404 | 50 | 275 | 5.0 | 17.0 | 0.00 | 0.01 | 0.00 | 82 | 1015.4 |
| 20260901111904 | 50 | 232 | 6.0 | 13.0 | 0.00 | 0.01 | 0.00 | 82 | 1015.5 |
| 20260901111405 | 50 | 248 | 7.0 | 21.0 | 0.00 | 0.01 | 0.00 | 81 | 1015.6 |
| 20260901110905 | 50 | 201 | 6.0 | 14.0 | 0.00 | 0.01 | 0.00 | 80 | 1015.6 |
| 20260901110404 | 50 | 223 | 7.0 | 16.0 | 0.00 | 0.01 | 0.00 | 80 | 1015.7 |
| 20260901105905 | 50 | 203 | 6.0 | 14.0 | 0.00 | 0.01 | 0.00 | 80 | 1015.7 |
| 20260901105405 | 50 | 207 | 7.0 | 14.0 | 0.00 | 0.01 | 0.00 | 79 | 1015.7 |
| 20260901104905 | 50 | 229 | 7.0 | 18.0 | 0.00 | 0.01 | 0.00 | 79 | 1015.6 |
| 20260901104405 | 50 | 212 | 7.0 | 18.0 | 0.00 | 0.01 | 0.00 | 78 | 1015.6 |
| 20260901103405 | 50 | 211 | 6.0 | 15.0 | 0.00 | 0.01 | 0.00 | 78 | 1015.7 |
| 20260901102904 | 51 | 217 | 7.0 | 18.0 | 0.00 | 0.01 | 0.00 | 77 | 1015.7 |
| 20260901102404 | 51 | 212 | 7.0 | 16.0 | 0.00 | 0.01 | 0.00 | 77 | 1015.6 |
| 20260901101904 | 51 | 216 | 7.0 | 18.0 | 0.00 | 0.01 | 0.00 | 77 | 1015.6 |
| 20260901101406 | 50 | 224 | 8.0 | 21.0 | 0.00 | 0.01 | 0.00 | 76 | 1015.5 |
| 20260901100906 | 51 | 199 | 9.0 | 20.0 | 0.00 | 0.01 | 0.00 | 76 | 1015.5 |
| 20260901100407 | 51 | 211 | 8.0 | 16.0 | 0.00 | 0.01 | 0.00 | 76 | 1015.5 |
| 20260901095904 | 50 | 215 | 8.0 | 16.0 | 0.00 | 0.01 | 0.00 | 76 | 1015.5 |
| 20260901095405 | 50 | 201 | 7.0 | 22.0 | 0.00 | 0.01 | 0.00 | 76 | 1015.5 |
| 20260901094905 | 50 | 201 | 7.0 | 13.0 | 0.00 | 0.01 | 0.00 | 76 | 1015.5 |
| 20260901094406 | 50 | 217 | 6.0 | 14.0 | 0.00 | 0.01 | 0.00 | 76 | 1015.5 |
| 20260901093905 | 50 | 219 | 7.0 | 15.0 | 0.00 | 0.01 | 0.00 | 75 | 1015.6 |
| 20260901093404 | 50 | 245 | 6.0 | 15.0 | 0.00 | 0.01 | 0.00 | 75 | 1015.6 |
| 20260901092905 | 50 | 263 | 6.0 | 14.0 | 0.00 | 0.01 | 0.00 | 76 | 1015.4 |
| 20260901091905 | 50 | 221 | 5.0 | 17.0 | 0.00 | 0.01 | 0.00 | 75 | 1015.3 |
| 20260901091405 | 50 | 230 | 5.0 | 14.0 | 0.00 | 0.01 | 0.00 | 76 | 1015.3 |
| 20260901084906 | 51 | 227 | 6.0 | 18.0 | 0.00 | 0.01 | 0.00 | 76 | 1015.2 |
| 20260901084405 | 51 | 213 | 8.0 | 17.0 | 0.00 | 0.01 | 0.00 | 77 | 1015.0 |
| 20260901083905 | 50 | 280 | 7.0 | 15.0 | 0.00 | 0.01 | 0.00 | 77 | 1015.0 |
| 20260901083405 | 50 | 208 | 7.0 | 14.0 | 0.00 | 0.01 | 0.00 | 77 | 1014.9 |
| 20260901082906 | 50 | 221 | 9.0 | 16.0 | 0.00 | 0.01 | 0.00 | 77 | 1014.8 |
| 20260901082404 | 50 | 197 | 7.0 | 15.0 | 0.00 | 0.01 | 0.00 | 77 | 1014.8 |
| 20260901081904 | 50 | 228 | 7.0 | 15.0 | 0.00 | 0.01 | 0.00 | 77 | 1014.7 |
| 20260901081405 | 50 | 220 | 6.0 | 16.0 | 0.00 | 0.01 | 0.00 | 77 | 1014.8 |
| 20260901080905 | 50 | 202 | 8.0 | 16.0 | 0.00 | 0.01 | 0.00 | 77 | 1014.8 |
| 20260901080404 | 50 | 215 | 7.0 | 21.0 | 0.00 | 0.01 | 0.00 | 77 | 1014.8 |
| 20260901075904 | 50 | 224 | 9.0 | 18.0 | 0.00 | 0.01 | 0.00 | 77 | 1014.8 |
| 20260901075404 | 50 | 243 | 7.0 | 15.0 | 0.00 | 0.01 | 0.00 | 77 | 1014.8 |
| 20260901074904 | 50 | 225 | 7.0 | 17.0 | 0.00 | 0.01 | 0.00 | 77 | 1014.8 |
| 20260901074405 | 50 | 237 | 8.0 | 16.0 | 0.00 | 0.01 | 0.00 | 77 | 1014.8 |
| 20260901073904 | 50 | 284 | 6.0 | 14.0 | 0.00 | 0.01 | 0.00 | 77 | 1014.8 |
| 20260901073405 | 50 | 240 | 6.0 | 20.0 | 0.00 | 0.01 | 0.00 | 77 | 1014.7 |
| 20260901072904 | 50 | 246 | 6.0 | 18.0 | 0.00 | 0.01 | 0.00 | 77 | 1014.7 |
| 20260901071905 | 50 | 200 | 6.0 | 15.0 | 0.00 | 0.02 | 0.00 | 77 | 1014.6 |
| 20260901071405 | 50 | 261 | 6.0 | 13.0 | 0.00 | 0.02 | 0.00 | 76 | 1014.6 |
| 20260901070405 | 51 | 197 | 5.0 | 12.0 | 0.00 | 0.02 | 0.00 | 76 | 1014.6 |
| 20260901065905 | 51 | 197 | 9.0 | 20.0 | 0.00 | 0.02 | 0.00 | 75 | 1014.5 |
| 20260901065405 | 51 | 266 | 7.0 | 17.0 | 0.00 | 0.02 | 0.00 | 75 | 1014.4 |
| 20260901064905 | 51 | 203 | 7.0 | 20.0 | 0.00 | 0.02 | 0.00 | 75 | 1014.4 |
| 20260901064405 | 51 | 210 | 7.0 | 13.0 | 0.00 | 0.02 | 0.00 | 75 | 1014.4 |
| 20260901063904 | 51 | 280 | 5.0 | 15.0 | 0.00 | 0.02 | 0.00 | 75 | 1014.4 |
| 20260901063405 | 51 | 251 | 8.0 | 14.0 | 0.00 | 0.02 | 0.00 | 75 | 1014.3 |
| 20260901062909 | 51 | 206 | 6.0 | 25.0 | 0.00 | 0.02 | 0.00 | 74 | 1014.2 |
| 20260901062406 | 51 | 215 | 6.0 | 14.0 | 0.00 | 0.02 | 0.00 | 75 | 1014.2 |
| 20260901061405 | 51 | 220 | 5.0 | 16.0 | 0.00 | 0.02 | 0.00 | 74 | 1014.2 |
| 20260901060905 | 51 | 269 | 8.0 | 17.0 | 0.00 | 0.02 | 0.00 | 74 | 1014.2 |
| 20260901055905 | 51 | 214 | 9.0 | 15.0 | 0.00 | 0.02 | 0.00 | 74 | 1014.1 |
| 20260901055405 | 51 | 231 | 6.0 | 15.0 | 0.00 | 0.02 | 0.00 | 74 | 1014.1 |
| 20260901054905 | 52 | 254 | 8.0 | 16.0 | 0.00 | 0.02 | 0.00 | 74 | 1014.0 |
| 20260901054405 | 52 | 327 | 6.0 | 14.0 | 0.00 | 0.02 | 0.00 | 74 | 1013.9 |
| 20260901053405 | 53 | 220 | 6.0 | 18.0 | 0.00 | 0.02 | 0.00 | 73 | 1013.9 |
| 20260901052405 | 53 | 199 | 10.0 | 20.0 | 0.00 | 0.02 | 0.00 | 72 | 1013.7 |
| 20260901051905 | 53 | 258 | 7.0 | 17.0 | 0.00 | 0.02 | 0.00 | 71 | 1013.7 |
| 20260901051405 | 54 | 352 | 7.0 | 24.0 | 0.00 | 0.02 | 0.00 | 71 | 1013.6 |
| 20260901050405 | 54 | 296 | 7.0 | 18.0 | 0.00 | 0.02 | 0.00 | 70 | 1013.8 |
| 20260901045905 | 55 | 230 | 9.0 | 22.0 | 0.00 | 0.02 | 0.00 | 69 | 1013.7 |
| 20260901045405 | 55 | 275 | 6.0 | 16.0 | 0.00 | 0.02 | 0.00 | 69 | 1013.6 |
| 20260901044905 | 55 | 247 | 7.0 | 20.0 | 0.00 | 0.02 | 0.00 | 68 | 1013.5 |
| 20260901043905 | 55 | 225 | 9.0 | 20.0 | 0.00 | 0.02 | 0.00 | 69 | 1013.5 |
| 20260901043405 | 55 | 254 | 7.0 | 20.0 | 0.00 | 0.02 | 0.00 | 70 | 1013.6 |
| 20260901042904 | 55 | 213 | 10.0 | 20.0 | 0.00 | 0.02 | 0.00 | 69 | 1013.5 |
| 20260901042405 | 56 | 250 | 8.0 | 18.0 | 0.00 | 0.02 | 0.00 | 69 | 1013.4 |
| 20260901041905 | 56 | 276 | 7.0 | 20.0 | 0.00 | 0.02 | 0.00 | 69 | 1013.3 |
| 20260901041405 | 56 | 246 | 7.0 | 20.0 | 0.00 | 0.02 | 0.00 | 68 | 1013.3 |
| 20260901040905 | 56 | 247 | 6.0 | 23.0 | 0.00 | 0.02 | 0.00 | 69 | 1013.2 |
| 20260901040405 | 56 | 222 | 7.0 | 20.0 | 0.00 | 0.02 | 0.00 | 69 | 1013.2 |
| 20260901035405 | 57 | 197 | 6.0 | 18.0 | 0.00 | 0.02 | 0.00 | 69 | 1013.0 |
| 20260901034905 | 56 | 238 | 8.0 | 18.0 | 0.00 | 0.02 | 0.00 | 69 | 1013.2 |
| 20260901034405 | 55 | 219 | 6.0 | 20.0 | 0.00 | 0.02 | 0.00 | 70 | 1013.1 |
| 20260901033905 | 55 | 343 | 9.0 | 18.0 | 0.00 | 0.02 | 0.00 | 71 | 1013.1 |
| 20260901033405 | 53 | 222 | 9.0 | 21.0 | 0.00 | 0.02 | 0.00 | 71 | 1013.2 |
| 20260901032905 | 53 | 260 | 10.0 | 21.0 | 0.00 | 0.02 | 0.00 | 71 | 1013.2 |
| 20260901032404 | 54 | 219 | 10.0 | 22.0 | 0.00 | 0.02 | 0.00 | 70 | 1013.3 |
| 20260901031905 | 55 | 216 | 14.0 | 32.0 | 0.00 | 0.02 | 0.00 | 69 | 1013.1 |
| 20260901031405 | 55 | 239 | 13.0 | 29.0 | 0.00 | 0.02 | 0.00 | 69 | 1013.1 |
| 20260901030905 | 55 | 222 | 12.0 | 28.0 | 0.00 | 0.02 | 0.00 | 67 | 1013.0 |
| 20260901025905 | 55 | 203 | 12.0 | 24.0 | 0.00 | 0.02 | 0.00 | 66 | 1013.1 |
| 20260901024905 | 57 | 331 | 10.0 | 18.0 | 0.00 | 0.02 | 0.00 | 65 | 1012.9 |
| 20260901024405 | 57 | 223 | 9.0 | 18.0 | 0.00 | 0.02 | 0.00 | 66 | 1012.7 |
| 20260901023905 | 56 | 201 | 9.0 | 20.0 | 0.00 | 0.02 | 0.00 | 68 | 1012.7 |
| 20260901022405 | 56 | 293 | 11.0 | 23.0 | 0.00 | 0.02 | 0.00 | 66 | 1012.6 |
| 20260901021905 | 56 | 202 | 9.0 | 21.0 | 0.00 | 0.02 | 0.00 | 68 | 1012.6 |
| 20260901021405 | 56 | 304 | 12.0 | 23.0 | 0.00 | 0.02 | 0.00 | 67 | 1012.5 |
| 20260901020905 | 56 | 232 | 13.0 | 25.0 | 0.00 | 0.02 | 0.00 | 66 | 1012.7 |
| 20260901015905 | 57 | 291 | 6.0 | 18.0 | 0.00 | 0.02 | 0.00 | 68 | 1012.7 |
| 20260901015405 | 56 | 235 | 10.0 | 23.0 | 0.00 | 0.02 | 0.00 | 68 | 1012.8 |
| 20260901014905 | 56 | 309 | 9.0 | 22.0 | 0.00 | 0.02 | 0.00 | 67 | 1012.7 |
| 20260901014404 | 56 | 266 | 10.0 | 22.0 | 0.00 | 0.02 | 0.00 | 65 | 1012.7 |
| 20260901013904 | 57 | 229 | 10.0 | 21.0 | 0.00 | 0.02 | 0.00 | 65 | 1012.7 |
| 20260901013404 | 57 | 209 | 9.0 | 20.0 | 0.00 | 0.02 | 0.00 | 65 | 1012.7 |
| 20260901012905 | 57 | 230 | 10.0 | 29.0 | 0.00 | 0.02 | 0.00 | 66 | 1012.7 |
| 20260901012405 | 57 | 213 | 12.0 | 23.0 | 0.00 | 0.02 | 0.00 | 65 | 1012.5 |
| 20260901011405 | 57 | 283 | 11.0 | 21.0 | 0.00 | 0.02 | 0.00 | 66 | 1012.7 |
| 20260901010905 | 57 | 235 | 11.0 | 22.0 | 0.00 | 0.02 | 0.00 | 65 | 1012.7 |
| 20260901010404 | 56 | 252 | 11.0 | 32.0 | 0.00 | 0.02 | 0.00 | 65 | 1012.8 |
| 20260901005905 | 56 | 248 | 9.0 | 21.0 | 0.00 | 0.02 | 0.00 | 66 | 1012.8 |
| 20260901005405 | 56 | 213 | 12.0 | 22.0 | 0.00 | 0.02 | 0.00 | 66 | 1012.9 |
| 20260901004905 | 56 | 204 | 12.0 | 23.0 | 0.00 | 0.02 | 0.00 | 66 | 1013.0 |
| 20260901004405 | 56 | 287 | 7.0 | 23.0 | 0.00 | 0.02 | 0.00 | 67 | 1013.1 |
| 20260901003904 | 56 | 206 | 12.0 | 20.0 | 0.00 | 0.02 | 0.00 | 66 | 1013.2 |
| 20260901003405 | 56 | 259 | 7.0 | 23.0 | 0.00 | 0.02 | 0.00 | 66 | 1013.1 |
| 20260901002905 | 56 | 227 | 9.0 | 20.0 | 0.00 | 0.02 | 0.00 | 65 | 1013.2 |
| 20260901002404 | 56 | 212 | 7.0 | 21.0 | 0.00 | 0.02 | 0.00 | 65 | 1013.3 |
| 20260901001904 | 56 | 202 | 14.0 | 29.0 | 0.00 | 0.02 | 0.00 | 64 | 1013.2 |
| 20260901001405 | 56 | 218 | 12.0 | 25.0 | 0.00 | 0.02 | 0.00 | 63 | 1013.1 |
| 20260901000405 | 56 | 297 | 9.0 | 17.0 | 0.00 | 0.02 | 0.00 | 65 | 1013.1 |
| 20260831235905 | 56 | 294 | 8.0 | 18.0 | 0.00 | 0.02 | 0.00 | 65 | 1013.1 |
| 20260831235405 | 56 | 209 | 7.0 | 14.0 | 0.00 | 0.02 | 0.00 | 66 | 1013.1 |
| 20260831234905 | 56 | 230 | 7.0 | 16.0 | 0.00 | 0.02 | 0.00 | 67 | 1013.1 |
| 20260831233406 | 55 | 225 | 11.0 | 21.0 | 0.00 | 0.02 | 0.00 | 67 | 1013.2 |
| 20260831232905 | 55 | 264 | 8.0 | 18.0 | 0.00 | 0.02 | 0.00 | 66 | 1013.2 |
| 20260831232405 | 56 | 261 | 9.0 | 16.0 | 0.00 | 0.02 | 0.00 | 65 | 1013.2 |
| 20260831231905 | 56 | 215 | 7.0 | 15.0 | 0.00 | 0.02 | 0.00 | 66 | 1013.3 |
| 20260831231404 | 56 | 234 | 7.0 | 17.0 | 0.00 | 0.02 | 0.00 | 66 | 1013.2 |
| 20260831230904 | 56 | 217 | 6.0 | 17.0 | 0.00 | 0.02 | 0.00 | 68 | 1013.2 |
| 20260831230405 | 55 | 235 | 7.0 | 17.0 | 0.00 | 0.02 | 0.00 | 67 | 1013.1 |
| 20260831225905 | 55 | 199 | 9.0 | 20.0 | 0.00 | 0.02 | 0.00 | 67 | 1013.1 |
| 20260831225404 | 55 | 234 | 9.0 | 23.0 | 0.00 | 0.02 | 0.00 | 66 | 1013.0 |